Regional Weather Roundup
Issued by NWS Newport/Morehead, NC

Home | Current Version | Previous Version | Text Only | Print | Product List | Glossary On
Versions: 1 2 3 4 5 6 7 8 9 10 11 12 13 14 15 16 17 18 19 20 21 22 23 24 25 26 27 28 29 30 31 32 33 34 35 36 37 38 39 40 41 42 43 44 45 46 47 48 49 50
000
ASUS42 KMHX 041924
RWRMHX
WEATHER ROUNDUP FOR EASTERN NORTH CAROLINA
NATIONAL WEATHER SERVICE NEWPORT/MOREHEAD CITY NC
200 PM EST SUN DEC 04 2016

NOTE: "FAIR" INDICATES FEW OR NO CLOUDS BELOW 12,000 FEET
WITH NO SIGNIFICANT WEATHER AND/OR OBSTRUCTIONS TO VISIBILITY

NCZ015>017-031-032-045>047-102-103-042000-
NORTH COAST

CITY           SKY/WX    TMP DP  RH WIND       PRES   REMARKS
EDENTON        CLOUDY    50  39  66 CALM      30.24F
ELIZABETH CITY CLOUDY    50  34  54 N3        30.24F
KITTY HAWK     CLOUDY    50  39  66 N3        30.22S
MANTEO         PTSUNNY   49  40  70 N9        30.23F

$$

NCZ045>047-081-094-103-104-042000-
CENTRAL COAST

CITY           SKY/WX    TMP DP  RH WIND       PRES   REMARKS
FRISCO         LGT RAIN  51  41  68 N7        30.22F

$$

NCZ095-097-098-100-101-042000-
SOUTHERN COAST

CITY           SKY/WX    TMP DP  RH WIND       PRES   REMARKS
BEAUFORT       CLOUDY    52  41  66 N8        30.23S
CEDAR ISLAND   NOT AVBL
JACKSONVILLE   LGT RAIN  48  43  82 N3        30.23F
PINEY ISLAND   CLOUDY   N/A N/A N/A N6        30.23S
WILMINGTON     LGT RAIN  46  43  89 NE9       30.20F


$$

NCZ011>013-027>030-043-044-078>080-089-090>093-098-042000-
COASTAL PLAIN

CITY           SKY/WX    TMP DP  RH WIND       PRES   REMARKS
AHOSKIE        CLOUDY    46  33  60 CALM      30.24F
CLINTON        RAIN      44  43  95 CALM      30.24S
ELIZABETHTOWN  RAIN      45  42  90 CALM      30.22S
GOLDSBORO      LGT RAIN  46  41  81 CALM      30.22S
GREENVILLE     CLOUDY    48  36  61 CALM      30.25S
HAVELOCK       CLOUDY    50  40  68 CALM      30.24F
KENANSVILLE    CLOUDY    46  41  81 CALM      30.24S
KINSTON        CLOUDY    48  37  66 CALM      30.24F
NEW BERN       LGT RAIN  50  37  61 CALM      30.24F
RICHLANDS      LGT RAIN  47  43  86 CALM      30.23F
ROCKY MOUNT    CLOUDY    48  35  60 CALM      30.24F
WASHINGTON     PTSUNNY   49  36  60 CALM      30.24S
WHITEVILLE     LGT RAIN  46  39  76 NE3       30.19F

$$

AMZ130-135-150-152-154-156-158-170-250-252-270-ANZ085-086-088-633-658-670-042000-
MARINE OBSERVATIONS

STATION/POSITION TIME  TEMP    WIND        PRES    WAVE   SWELL
                       AIR SEA DIR/SP/G            HT/PER HT/PER
                 (UTC) (F)     (DEG/KT/KT) (MB)    (FT/S) (FT/S)
CHESAPEAKE LIGHT NOT AVBL
64 E VA BEACH    1850   49 60  350/  8/ 12 1023.1    4/ 7   3/ 7
DUCK             1900   48 55  360/  7/  9 1023.2
2 E DUCK         NOT AVBL
OREGON INLET     1900   50 55  360/  6/  9 1023.4
13E OREGON INLT  1900      60                N/A     4/ 8   3/ 8
HATTERAS CG      1900   50 56   10/  9/ 11 1022.9
DIAMOND BUOY     1850   55 75   10/ 10/ 14 1023.0    5/ 9   5/ 9
CAPE LOOKOUT     1900   50     350/  8/ 10 1023.1
BEAUFORT LAB     1900   51 55  360/  6/  7 1022.5
30 SE NEW RVR IN 1908   55 74   30/ 12/ 16 1022.7
30 SE NEW RVR IN NOT AVBL
27 SE WRIGHTSVLE 1908   56 68   40/ 14/ 19 1021.8
5 SE WRIGHTSVLE  1808   49 63   30/ 16/ 23 1022.3
225 S CAPE HAT   1850   66 74  120/  2/  4 1021.0    4/10   5/10
41 SE CHARLESTON 1850   67 75  100/ 12/ 14 1019.3    3/ 5   2/ 9

$$




USA.gov is the U.S. government's official web portal to all federal, state and local government web resources and services.